TimeCST,TemperatureF,Dew PointF,Humidity,Sea Level PressureIn,VisibilityMPH,Wind Direction,Wind SpeedMPH,Gust SpeedMPH,PrecipitationIn,Events,Conditions,WindDirDegrees,DateUTC
12:54 AM,43.0,28.9,58,29.86,10.0,NW,13.8,-,N/A,,Overcast,310,2013-02-14 06:54:00
1:54 AM,41.0,28.9,62,29.87,10.0,NW,12.7,-,N/A,,Partly Cloudy,310,2013-02-14 07:54:00
2:54 AM,41.0,28.9,62,29.90,10.0,NW,13.8,-,N/A,,Clear,310,2013-02-14 08:54:00
3:54 AM,37.9,28.9,70,29.90,10.0,NW,9.2,-,N/A,,Clear,320,2013-02-14 09:54:00
4:54 AM,36.0,28.9,76,29.94,10.0,WNW,10.4,-,N/A,,Clear,290,2013-02-14 10:54:00
5:54 AM,35.6,28.4,75,29.94,10.0,WNW,6.9,-,N/A,,Clear,290,2013-02-14 11:54:00
6:54 AM,34.0,28.0,79,29.99,10.0,West,4.6,-,N/A,,Clear,280,2013-02-14 12:54:00
7:54 AM,34.0,28.0,79,30.01,10.0,West,5.8,-,N/A,,Clear,280,2013-02-14 13:54:00
8:54 AM,35.1,28.9,78,30.03,10.0,Calm,Calm,-,N/A,,Clear,0,2013-02-14 14:54:00
9:54 AM,39.9,28.9,65,30.05,10.0,NW,13.8,-,N/A,,Clear,310,2013-02-14 15:54:00
10:54 AM,43.0,25.0,49,30.06,10.0,NNW,18.4,-,N/A,,Clear,340,2013-02-14 16:54:00
11:54 AM,43.0,21.9,43,30.07,10.0,NW,18.4,26.5,N/A,,Scattered Clouds,320,2013-02-14 17:54:00
12:54 PM,45.0,21.0,39,30.07,10.0,NW,13.8,27.6,N/A,,Partly Cloudy,320,2013-02-14 18:54:00
1:54 PM,44.1,19.0,37,30.07,10.0,NW,26.5,34.5,N/A,,Mostly Cloudy,320,2013-02-14 19:54:00
2:54 PM,44.1,17.1,34,30.08,10.0,NW,25.3,35.7,N/A,,Scattered Clouds,320,2013-02-14 20:54:00
3:54 PM,44.1,18.0,35,30.10,10.0,NW,19.6,31.1,N/A,,Overcast,320,2013-02-14 21:54:00
4:54 PM,42.1,18.0,38,30.12,10.0,NW,15.0,25.3,N/A,,Overcast,310,2013-02-14 22:54:00
5:54 PM,39.0,21.9,50,30.14,10.0,NNW,23.0,33.4,N/A,,Overcast,330,2013-02-14 23:54:00
6:34 PM,33.8,28.4,81,30.14,1.8,NW,24.2,34.5,0.00,Snow,Light Snow,310,2013-02-15 00:34:00
6:37 PM,33.8,30.2,87,30.14,1.2,NW,17.3,34.5,0.00,Snow,Light Snow,310,2013-02-15 00:37:00
6:40 PM,33.8,30.2,87,30.14,1.8,NW,16.1,29.9,0.00,Snow,Light Snow,310,2013-02-15 00:40:00
6:44 PM,33.8,30.2,87,30.14,3.0,NW,16.1,-,0.00,Snow,Light Snow,320,2013-02-15 00:44:00
6:54 PM,34.0,30.9,89,30.18,5.0,NW,19.6,26.5,0.00,Snow,Light Snow,320,2013-02-15 00:54:00
7:06 PM,33.8,30.2,87,30.15,9.0,NW,17.3,27.6,0.00,,Overcast,310,2013-02-15 01:06:00
7:54 PM,33.1,26.1,75,30.19,10.0,NW,23.0,28.8,0.00,,Mostly Cloudy,310,2013-02-15 01:54:00
8:41 PM,28.4,24.8,86,30.19,3.0,North,34.5,42.6,0.00,Snow,Light Snow,360,2013-02-15 02:41:00
8:54 PM,28.0,25.0,88,30.25,3.0,North,25.3,34.5,0.00,Snow,Light Snow,350,2013-02-15 02:54:00
9:11 PM,26.6,23.0,86,30.23,2.5,North,19.6,39.1,0.00,Snow,Light Snow,350,2013-02-15 03:11:00
9:16 PM,26.6,23.0,86,30.24,3.0,North,23.0,29.9,0.00,Snow,Light Snow,350,2013-02-15 03:16:00
9:18 PM,26.6,23.0,86,30.24,3.0,North,21.9,29.9,0.00,Snow,Light Snow,350,2013-02-15 03:18:00
9:28 PM,26.6,21.2,80,30.24,8.0,North,21.9,-,0.00,Snow,Light Snow,350,2013-02-15 03:28:00
9:54 PM,27.0,18.0,69,30.30,10.0,North,19.6,29.9,0.00,,Overcast,350,2013-02-15 03:54:00
10:54 PM,24.1,16.0,71,30.33,10.0,NNW,15.0,-,N/A,,Clear,340,2013-02-15 04:54:00
11:54 PM,21.0,12.9,71,30.35,10.0,NNW,12.7,-,N/A,,Clear,340,2013-02-15 05:54:00